STARLINK-1623, 46129

Orbit data source: Space-Track

STARLINK-1623, 46129 is a payload satellite owned by SpaceX/Seattle (US) in LEO that was launched on Tue, 18 Aug 2020 UTC via an FALCON 9 launch vehicle from the Air Force Eastern Test Range (AFETR). Payloads include a variety of satellites, spacecraft, and rockets equipped with specific instruments for various scientific and technological missions. These include communications satellites like Starlink; space stations such as the ISS; scientific satellites like the Hubble; Earth observation satellites from companies like Planet Labs, Umbra, and HawkEye 360; GPS; miniature CubeSats for education and research; and military/defense satellites.

Loading next visibility...
STARLINK-1623 details
Identifier
46129, 2020-057N
Orbit
LEO
Last TLE update1 day ago
Origin
Flag of USSpaceX/Seattle (US)
ManufacturerSpaceX/Seattle
MissionOperational Commercial Communications
Bus & MotorSTARLINK, Unknown motor
Mass260 kg wet, ~248 kg dry
Launch date (UTC)
2020-08-18 (4 years ago)
Launch vehicle
FALCON 9
Launch site
Air Force Eastern Test Range (AFETR)
Object type
Payload
Rocket body
Debris
Shape & HBRBox + 1 Pan, 8.86 m
Radar Cross Section13.562 m², Large (>1 m²)

Expand to show TLE details & history

TLE from 1 day ago
0 STARLINK-1623
1 46129U 20057N   24348.16172496  .00001311  00000-0  10691-3 0  9999
2 46129  53.0529 143.6079 0001215  83.6327 276.4800 15.06395187238573
Epoch: 2024-12-13T03:52Z
Definitive object data (Epoch: 2024-12-13T03:52:53.036Z)
Latitude-0.00005°
Longitude3.05521°
Altitude548.01 km
Speed7.589 km/s
True Right ascension09h 34m 25s
True Declination0° 00' 00"
Sunlit
Object was in full shadow at TLE epoch
Visualization TLE readout
Latitude53.07753°
Longitude83.02505°
Altitude552.897 km
Speed7.592 km/s
Apparent Right ascension14h 47m 33s
Apparent Declination9° 03' 59"
Sunlit
Object is in daylight
Visualization observer readout
Local Sidereal Time02:41:47
Azimuth358.117° N
Elevation-40.999°
Doppler factor1
Orbital elements
Apogee altitude548.339 km
Perigee altitude546.656 km
Semi-major axis6,925.634 km
Eccentricity0.0001215
Inclination53.0529°
RAAN143.6079°
Arg. of periapsis83.6327°
True anomaly276.46617°
Mean anomaly276.48°
Eccentric anomaly276.47308°
Mean motion3.76577 °/min
BSTAR0.00010691
Orbital period95.6 mins
Loading maneuver chart data...
Loading historical data...
Loading historical data...
Loading historical data...
Loading historical data...
Loading historical data...
Loading historical data...
Loading historical data...

STARLINK-1623 Visibility forecast

Observer location: undefined°, undefined

Span
Click to sort rows by Start time (UTC) header in descending order
Start Az.
Max El. time (UTC)
Max El. Az.
Max El.
End time (UTC)
End Az.
5 mins2024-12-14 11:52:57.212Z165.179° S2024-12-14 11:54:57.212Z130.896° SE18.32°2024-12-14 11:57:57.212Z82.429° E
6 mins2024-12-14 13:31:57.212Z251.099° W2024-12-14 13:33:57.212Z299.308° NW39.642°2024-12-14 13:37:57.212Z42.886° NE
4 mins2024-12-14 15:12:57.212Z316.023° NNW2024-12-14 15:14:57.212Z351.523° N16.384°2024-12-14 15:16:57.212Z22.372° NNE
5 mins2024-12-14 18:33:57.212Z342.017° N2024-12-14 18:35:57.212Z23.58° NE24.105°2024-12-14 18:38:57.212Z79.824° E
6 mins2024-12-14 20:12:57.212Z298.574° NW2024-12-14 20:15:57.212Z212.84° SW40.07°2024-12-14 20:18:57.212Z148.111° SSE
|